This demonstration page uses our WeatherBlox Daily Observations layout. Learn more.

Left ArrowRight Arrow

38.83388, -104.82136

Hourly Observations for December 10, 2022

Temp ( °F °C ) Dew Point ( °F °C ) Humidity (%) Winds ( mph kmh ) Pressure ( in mb ) Visibility ( mi km ) Precip ( " mm )
12:55 am 00:55 Clear 37 2.6 2 -16.5 23 23 SSW 8 13 29.18 988 10 16 0.00 0.00
1:55 am 01:55 Clear 36 2.1 1 -17.4 22 22 SW 8 13 29.21 989 10 16 0.00 0.00
2:55 am 02:55 Clear 35 1.5 -1 -18.5 21 21 W 5 7 29.20 989 10 16 0.00 0.00
3:55 am 03:55 Clear 32 0.1 0 -17.6 25 25 S 10 17 29.17 988 10 16 0.00 0.00
4:55 am 04:55 Clear 31 -0.4 4 -15.5 31 31 S 7 11 29.21 989 10 16 0.00 0.00
5:55 am 05:55 Clear 28 -2.3 5 -15 37 37 SSW 6 9 29.16 987 10 16 0.00 0.00
6:55 am 06:55 Clear 28 -2.5 2 -16.6 33 33 S 12 19 29.18 988 10 16 0.00 0.00
7:55 am 07:55 Sunny 30 -1.2 3 -16.2 31 31 SSE 8 13 29.27 991 10 16 0.00 0.00
8:55 am 08:55 Sunny 33 0.6 7 -13.8 33 33 SSE 15 24 29.34 994 10 16 0.00 0.00
9:55 am 09:55 Sunny 36 2.2 8 -13.6 30 30 S 16 26 29.40 996 10 16 0.00 0.00
10:55 am 10:55 Sunny 37 2.7 8 -13.2 30 30 S 16 26 29.41 996 10 16 0.00 0.00
11:55 am 11:55 Mostly Sunny 38 3.6 10 -12.4 30 30 SSE 15 24 29.44 997 10 16 0.00 0.00
12:55 pm 12:55 Cloudy 39 3.8 9 -12.6 29 29 SSE 17 28 29.44 997 10 16 0.00 0.00
1:55 pm 13:55 Cloudy 40 4.7 9 -12.7 27 27 SSE 12 19 29.48 998 10 16 0.00 0.00
2:55 pm 14:55 Mostly Sunny 37 2.8 9 -12.7 31 31 Calm 29.37 995 10 16 0.00 0.00
3:55 pm 15:55 Sunny 36 2.4 9 -12.6 32 32 SE 5 7 29.27 991 10 16 0.00 0.00
4:55 pm 16:55 Clear 35 1.4 8 -13.5 32 32 NNW 5 7 29.25 991 10 16 0.00 0.00
5:55 pm 17:55 Clear 35 1.4 7 -13.9 31 31 Calm 29.25 990 10 16 0.00 0.00
6:55 pm 18:55 Clear 34 1.2 4 -15.3 28 28 Calm 29.28 992 10 16 0.00 0.00
7:55 pm 19:55 Mostly Cloudy 33 0.8 6 -14.4 31 31 Calm 29.22 990 10 16 0.00 0.00
8:55 pm 20:55 Clear 40 4.5 0 -17.8 18 18 Calm 29.23 990 10 16 0.00 0.00
9:55 pm 21:55 Clear 44 6.9 -2 -18.8 14 14 S 10 17 29.37 995 10 16 0.00 0.00
10:55 pm 22:55 Clear 45 7.4 -3 -19.3 13 13 SSW 9 15 29.41 996 10 16 0.00 0.00
11:55 pm 23:55 Clear 45 7 -3 -19.6 13 13 S 9 15 29.41 996 10 16 0.00 0.00

Powered by AerisWeather